Weather History for Columbia, MO

Change the Weather History Date:

Thursday, June 27, 2013

  Actual Average Record
Temperature  
Mean Temperature 79 °F 76 °F  
Max Temperature 90 °F 86 °F 103 °F (2012)
Min Temperature 68 °F 66 °F 48 °F (1926)
Degree Days  
Heating Degree Days 0 0  
Month to date heating degree days 6 9  
Since 1 June heating degree days 6 9  
Since 1 July heating degree days 4902 5021  
Cooling Degree Days 14 11  
Month to date cooling degree days 239 214  
Year to date cooling degree days 373 317  
Since 1 June cooling degree days 239 214  
Growing Degree Days 29 (Base 50)    
Moisture  
Dew Point 68 °F    
Average Humidity 67    
Maximum Humidity 87    
Minimum Humidity 47    
Precipitation  
Precipitation 0.00 in 0.14 in 2.58 in (1909)
Month to date precipitation 1.90 4.03  
Year to date precipitation 28.61 20.58  
Snow  
Snow 0.00 in 0.00 in 0.00 in (2013)
Month to date snowfall 0.0 0.0  
Since 1 June snowfall 0.0 0.0  
Since 1 July snowfall 35.0 18.0  
Snow Depth 0.00 in    
Sea Level Pressure  
Sea Level Pressure 29.89 in    
Wind  
Wind Speed 6 mph (WNW)    
Max Wind Speed 16 mph    
Max Gust Speed -    
Visibility 10 miles    
Events      
T = Trace of Precipitation, MM = Missing Value Source: NWS Daily Summary

Daily Weather History Graph

Daily Weather History Graph

Search for Another Location

Airport:

Trip Planner

Search our weather history database for the weather conditions in past years. The results will help you decide how hot, cold, wet, or windy it might be!

Date:

Astronomy

Jun. 27, 2013 Rise Set
Actual Time 5:45 AM CDT 8:38 PM CDT
Civil Twilight 5:13 AM CDT 9:10 PM CDT
Nautical Twilight 4:33 AM CDT 9:50 PM CDT
Astronomical Twilight 3:47 AM CDT 10:36 PM CDT
Moon 11:38 PM CDT (6/27) 10:44 AM CDT (6/27)
Length of Visible Light 15h 56m
Length of Day
14h 52m
Waning Gibbous, 76% of the Moon is Illuminated
Jun 27
Waning Gibbous
Jun 29
Last Quarter
Jul 8
New
Jul 15
First Quarter
Jul 22
Full

Hourly Weather History & Observations

Time (CDT) Temp. Heat Index Dew Point Humidity Pressure Visibility Wind Dir Wind Speed Gust Speed Precip Events Conditions
12:54 AM 75.0 °F - 64.9 °F 71% 29.86 in 10.0 mi WNW 6.9 mph - N/A   Clear
1:54 AM 73.9 °F - 64.9 °F 73% 29.86 in 10.0 mi WNW 5.8 mph - N/A   Clear
2:54 AM 73.0 °F - 64.9 °F 76% 29.86 in 10.0 mi WNW 6.9 mph - N/A   Clear
3:54 AM 73.0 °F - 64.9 °F 76% 29.87 in 10.0 mi WNW 5.8 mph - N/A   Clear
4:54 AM 70.0 °F - 64.0 °F 81% 29.88 in 10.0 mi NW 4.6 mph - N/A   Clear
5:54 AM 70.0 °F - 64.0 °F 81% 29.90 in 10.0 mi West 6.9 mph - N/A   Clear
6:54 AM 73.9 °F - 66.0 °F 76% 29.90 in 10.0 mi West 5.8 mph - N/A   Clear
7:54 AM 79.0 °F - 66.9 °F 66% 29.91 in 10.0 mi NW 4.6 mph - N/A   Clear
8:54 AM 82.0 °F 84.9 °F 68.0 °F 62% 29.92 in 10.0 mi NW 4.6 mph - N/A   Clear
9:54 AM 86.0 °F 88.8 °F 66.9 °F 53% 29.92 in 10.0 mi NW 3.5 mph - N/A   Clear
10:54 AM 87.1 °F 91.3 °F 69.1 °F 55% 29.92 in 10.0 mi Calm Calm - N/A   Clear
11:54 AM 90.0 °F 92.8 °F 66.9 °F 46% 29.91 in 10.0 mi WNW 6.9 mph - N/A   Clear
12:54 PM 89.1 °F 93.7 °F 69.1 °F 52% 29.92 in 10.0 mi West 8.1 mph - N/A   Clear
1:54 PM 87.1 °F 92.0 °F 70.0 °F 57% 29.95 in 10.0 mi WNW 12.7 mph - N/A   Clear
2:54 PM 86.0 °F 90.1 °F 69.1 °F 57% 29.94 in 10.0 mi NW 16.1 mph - N/A   Clear
3:54 PM 84.0 °F 87.8 °F 69.1 °F 61% 29.90 in 10.0 mi North 8.1 mph - N/A   Clear
4:54 PM 84.0 °F 87.8 °F 69.1 °F 61% 29.89 in 10.0 mi North 4.6 mph - N/A   Mostly Cloudy
5:54 PM 82.0 °F 86.3 °F 71.1 °F 69% 29.85 in 10.0 mi Calm Calm - N/A   Clear
6:54 PM 82.0 °F 86.7 °F 72.0 °F 71% 29.84 in 10.0 mi West 8.1 mph - N/A   Clear
7:54 PM 80.1 °F 83.8 °F 72.0 °F 76% 29.83 in 10.0 mi NW 5.8 mph - N/A   Clear
8:54 PM 77.0 °F - 71.1 °F 82% 29.84 in 10.0 mi NW 5.8 mph - N/A   Clear
9:54 PM 75.0 °F - 72.0 °F 90% 29.88 in 10.0 mi West 6.9 mph - N/A   Clear
10:54 PM 75.9 °F - 71.1 °F 85% 29.89 in 10.0 mi West 5.8 mph - N/A   Clear
11:54 PM 75.0 °F - 71.1 °F 87% 29.87 in 10.0 mi Calm Calm - N/A   Partly Cloudy